Year,Month,Day,Hour,Minute,Value (Times are PST for temperature in C)
2016,06,29,00,00,15.30
2016,06,29,00,01,15.30
2016,06,29,00,02,15.30
2016,06,29,00,03,15.30
2016,06,29,00,04,15.20
2016,06,29,00,05,15.20
2016,06,29,00,06,15.10
2016,06,29,00,07,15.10
2016,06,29,00,08,15.10
2016,06,29,00,09,15.10
2016,06,29,00,10,15.00
2016,06,29,00,11,14.90
2016,06,29,00,12,14.90
2016,06,29,00,13,14.90
2016,06,29,00,14,14.90
2016,06,29,00,15,14.80
2016,06,29,00,16,14.80
2016,06,29,00,17,14.80
2016,06,29,00,18,14.80
2016,06,29,00,19,14.80
2016,06,29,00,20,14.80
2016,06,29,00,21,14.70
2016,06,29,00,22,14.70
2016,06,29,00,23,14.70
2016,06,29,00,24,14.70
2016,06,29,00,25,14.70
2016,06,29,00,26,14.70
2016,06,29,00,27,14.60
2016,06,29,00,28,14.60
2016,06,29,00,29,14.60
2016,06,29,00,30,14.60
2016,06,29,00,31,14.60
2016,06,29,00,32,14.60
2016,06,29,00,33,14.60
2016,06,29,00,34,14.60
2016,06,29,00,35,14.60
2016,06,29,00,36,14.60
2016,06,29,00,37,14.50
2016,06,29,00,38,14.60
2016,06,29,00,39,14.50
2016,06,29,00,40,14.60
2016,06,29,00,41,14.60
2016,06,29,00,42,14.60
2016,06,29,00,43,14.60
2016,06,29,00,44,14.60
2016,06,29,00,45,14.60
2016,06,29,00,46,14.60
2016,06,29,00,47,14.60
2016,06,29,00,48,14.60
2016,06,29,00,49,14.60
2016,06,29,00,50,14.60
2016,06,29,00,51,14.60
2016,06,29,00,52,14.60
2016,06,29,00,53,14.60
2016,06,29,00,54,14.60
2016,06,29,00,55,14.60
2016,06,29,00,56,14.60
2016,06,29,00,57,14.60
2016,06,29,00,58,14.60
2016,06,29,00,59,14.60
2016,06,29,01,00,14.60
2016,06,29,01,01,14.60
2016,06,29,01,02,14.60
2016,06,29,01,03,14.50
2016,06,29,01,04,14.50
2016,06,29,01,05,14.50
2016,06,29,01,06,14.50
2016,06,29,01,07,14.50
2016,06,29,01,08,14.40
2016,06,29,01,09,14.40
2016,06,29,01,10,14.40
2016,06,29,01,11,14.40
2016,06,29,01,12,14.40
2016,06,29,01,13,14.40
2016,06,29,01,14,14.40
2016,06,29,01,15,14.40
2016,06,29,01,16,14.40
2016,06,29,01,17,14.30
2016,06,29,01,18,14.30
2016,06,29,01,19,14.30
2016,06,29,01,20,14.30
2016,06,29,01,21,14.30
2016,06,29,01,22,14.30
2016,06,29,01,23,14.30
2016,06,29,01,24,14.30
2016,06,29,01,25,14.30
2016,06,29,01,26,14.20
2016,06,29,01,27,14.20
2016,06,29,01,28,14.20
2016,06,29,01,29,14.20
2016,06,29,01,30,14.20
2016,06,29,01,31,14.20
2016,06,29,01,32,14.20
2016,06,29,01,33,14.10
2016,06,29,01,34,14.10
2016,06,29,01,35,14.10
2016,06,29,01,36,14.10
2016,06,29,01,37,14.10
2016,06,29,01,38,14.10
2016,06,29,01,39,14.10
2016,06,29,01,40,14.10
2016,06,29,01,41,14.10
2016,06,29,01,42,14.10
2016,06,29,01,43,14.10
2016,06,29,01,44,14.00
2016,06,29,01,45,14.00
2016,06,29,01,46,14.00
2016,06,29,01,47,14.00
2016,06,29,01,48,14.00
2016,06,29,01,49,14.00
2016,06,29,01,50,14.00
2016,06,29,01,51,13.90
2016,06,29,01,52,13.90
2016,06,29,01,53,13.90
2016,06,29,01,54,13.90
2016,06,29,01,55,13.90
2016,06,29,01,56,13.90
2016,06,29,01,57,13.90
2016,06,29,01,58,13.90
2016,06,29,01,59,13.90
2016,06,29,02,00,13.90
2016,06,29,02,01,13.90
2016,06,29,02,02,13.90
2016,06,29,02,03,13.90
2016,06,29,02,04,13.80
2016,06,29,02,05,13.80
2016,06,29,02,06,13.80
2016,06,29,02,07,13.80
2016,06,29,02,08,13.80
2016,06,29,02,09,13.80
2016,06,29,02,10,13.80
2016,06,29,02,11,13.80
2016,06,29,02,12,13.80
2016,06,29,02,13,13.70
2016,06,29,02,14,13.70
2016,06,29,02,15,13.70
2016,06,29,02,16,13.70
2016,06,29,02,17,13.70
2016,06,29,02,18,13.70
2016,06,29,02,19,13.70
2016,06,29,02,20,13.70
2016,06,29,02,21,13.70
2016,06,29,02,22,13.60
2016,06,29,02,23,13.60
2016,06,29,02,24,13.60
2016,06,29,02,25,13.60
2016,06,29,02,26,13.60
2016,06,29,02,27,13.60
2016,06,29,02,28,13.60
2016,06,29,02,29,13.60
2016,06,29,02,30,13.60
2016,06,29,02,31,13.60
2016,06,29,02,32,13.60
2016,06,29,02,33,13.50
2016,06,29,02,34,13.50
2016,06,29,02,35,13.50
2016,06,29,02,36,13.50
2016,06,29,02,37,13.50
2016,06,29,02,38,13.50
2016,06,29,02,39,13.50
2016,06,29,02,40,13.40
2016,06,29,02,41,13.40
2016,06,29,02,42,13.40
2016,06,29,02,43,13.40
2016,06,29,02,44,13.40
2016,06,29,02,45,13.40
2016,06,29,02,46,13.40
2016,06,29,02,47,13.40
2016,06,29,02,48,13.40
2016,06,29,02,49,13.40
2016,06,29,02,50,13.40
2016,06,29,02,51,13.40
2016,06,29,02,52,13.30
2016,06,29,02,53,13.30
2016,06,29,02,54,13.30
2016,06,29,02,55,13.30
2016,06,29,02,56,13.30
2016,06,29,02,57,13.30
2016,06,29,02,58,13.30
2016,06,29,02,59,13.30
2016,06,29,03,00,13.30
2016,06,29,03,01,13.30
2016,06,29,03,02,13.30
2016,06,29,03,03,13.30
2016,06,29,03,04,13.30
2016,06,29,03,05,13.30
2016,06,29,03,06,13.30
2016,06,29,03,07,13.30
2016,06,29,03,08,13.30
2016,06,29,03,09,13.30
2016,06,29,03,10,13.30
2016,06,29,03,11,13.30
2016,06,29,03,12,13.30
2016,06,29,03,13,13.30
2016,06,29,03,14,13.30
2016,06,29,03,15,13.30
2016,06,29,03,16,13.30
2016,06,29,03,17,13.30
2016,06,29,03,18,13.30
2016,06,29,03,19,13.30
2016,06,29,03,20,13.30
2016,06,29,03,21,13.30
2016,06,29,03,22,13.30
2016,06,29,03,23,13.30
2016,06,29,03,24,13.30
2016,06,29,03,25,13.30
2016,06,29,03,26,13.30
2016,06,29,03,27,13.30
2016,06,29,03,28,13.30
2016,06,29,03,29,13.30
2016,06,29,03,30,13.30
2016,06,29,03,31,13.20
2016,06,29,03,32,13.20
2016,06,29,03,33,13.20
2016,06,29,03,34,13.20
2016,06,29,03,35,13.20
2016,06,29,03,36,13.20
2016,06,29,03,37,13.20
2016,06,29,03,38,13.20
2016,06,29,03,39,13.20
2016,06,29,03,40,13.20
2016,06,29,03,41,13.10
2016,06,29,03,42,13.10
2016,06,29,03,43,13.10
2016,06,29,03,44,13.10
2016,06,29,03,45,13.10
2016,06,29,03,46,13.10
2016,06,29,03,47,13.10
2016,06,29,03,48,13.10
2016,06,29,03,49,13.10
2016,06,29,03,50,13.10
2016,06,29,03,51,13.10
2016,06,29,03,52,13.10
2016,06,29,03,53,13.10
2016,06,29,03,54,13.10
2016,06,29,03,55,13.10
2016,06,29,03,56,13.10
2016,06,29,03,57,13.10
2016,06,29,03,58,13.10
2016,06,29,03,59,13.10
2016,06,29,04,00,13.10
2016,06,29,04,01,13.10
2016,06,29,04,02,13.10
2016,06,29,04,03,13.10
2016,06,29,04,04,13.10
2016,06,29,04,05,13.10
2016,06,29,04,06,13.10
2016,06,29,04,07,13.10
2016,06,29,04,08,13.10
2016,06,29,04,09,13.10
2016,06,29,04,10,13.10
2016,06,29,04,11,13.10
2016,06,29,04,12,13.10
2016,06,29,04,13,13.10
2016,06,29,04,14,13.10
2016,06,29,04,15,13.10
2016,06,29,04,16,13.10
2016,06,29,04,17,13.10
2016,06,29,04,18,13.10
2016,06,29,04,19,13.10
2016,06,29,04,20,13.10
2016,06,29,04,21,13.10
2016,06,29,04,22,13.10
2016,06,29,04,23,13.10
2016,06,29,04,24,13.10
2016,06,29,04,25,13.10
2016,06,29,04,26,13.10
2016,06,29,04,27,13.10
2016,06,29,04,28,13.10
2016,06,29,04,29,13.10
2016,06,29,04,30,13.10
2016,06,29,04,31,13.10
2016,06,29,04,32,13.10
2016,06,29,04,33,13.10
2016,06,29,04,34,13.20
2016,06,29,04,35,13.10
2016,06,29,04,36,13.20
2016,06,29,04,37,13.10
2016,06,29,04,38,13.10
2016,06,29,04,39,13.10
2016,06,29,04,40,13.10
2016,06,29,04,41,13.10
2016,06,29,04,42,13.10
2016,06,29,04,43,13.10
2016,06,29,04,44,13.10
2016,06,29,04,45,13.10
2016,06,29,04,46,13.10
2016,06,29,04,47,13.10
2016,06,29,04,48,13.10
2016,06,29,04,49,13.20
2016,06,29,04,50,13.10
2016,06,29,04,51,13.20
2016,06,29,04,52,13.10
2016,06,29,04,53,13.10
2016,06,29,04,54,13.10
2016,06,29,04,55,13.10
2016,06,29,04,56,13.10
2016,06,29,04,57,13.10
2016,06,29,04,58,13.10
2016,06,29,04,59,13.10
2016,06,29,05,00,13.10
2016,06,29,05,01,13.10
2016,06,29,05,02,13.10
2016,06,29,05,03,13.10
2016,06,29,05,04,13.10
2016,06,29,05,05,13.10
2016,06,29,05,06,13.10
2016,06,29,05,07,13.10
2016,06,29,05,08,13.10
2016,06,29,05,09,13.10
2016,06,29,05,10,13.10
2016,06,29,05,11,13.10
2016,06,29,05,12,13.10
2016,06,29,05,13,13.00
2016,06,29,05,14,13.00
2016,06,29,05,15,13.00
2016,06,29,05,16,13.10
2016,06,29,05,17,13.10
2016,06,29,05,18,13.10
2016,06,29,05,19,13.00
2016,06,29,05,20,13.00
2016,06,29,05,21,13.00
2016,06,29,05,22,13.00
2016,06,29,05,23,13.00
2016,06,29,05,24,13.00
2016,06,29,05,25,13.00
2016,06,29,05,26,13.00
2016,06,29,05,27,13.00
2016,06,29,05,28,13.00
2016,06,29,05,29,13.00
2016,06,29,05,30,13.00
2016,06,29,05,31,13.00
2016,06,29,05,32,13.00
2016,06,29,05,33,13.00
2016,06,29,05,34,13.00
2016,06,29,05,35,13.00
2016,06,29,05,36,13.00
2016,06,29,05,37,13.00
2016,06,29,05,38,13.00
2016,06,29,05,39,13.00
2016,06,29,05,40,13.00
2016,06,29,05,41,13.00
2016,06,29,05,42,13.00
2016,06,29,05,43,13.00
2016,06,29,05,44,13.00
2016,06,29,05,45,13.00
2016,06,29,05,46,13.00
2016,06,29,05,47,13.00
2016,06,29,05,48,13.00
2016,06,29,05,49,13.00
2016,06,29,05,50,13.00
2016,06,29,05,51,13.00
2016,06,29,05,52,13.10
2016,06,29,05,53,13.10
2016,06,29,05,54,13.10
2016,06,29,05,55,13.10
2016,06,29,05,56,13.10
2016,06,29,05,57,13.10
2016,06,29,05,58,13.10
2016,06,29,05,59,13.20
2016,06,29,06,00,13.20
2016,06,29,06,01,13.20
2016,06,29,06,02,13.20
2016,06,29,06,03,13.20
2016,06,29,06,04,13.30
2016,06,29,06,05,13.30
2016,06,29,06,06,13.30
2016,06,29,06,07,13.30
2016,06,29,06,08,13.40
2016,06,29,06,09,13.40
2016,06,29,06,10,13.40
2016,06,29,06,11,13.40
2016,06,29,06,12,13.40
2016,06,29,06,13,13.50
2016,06,29,06,14,13.50
2016,06,29,06,15,13.50
2016,06,29,06,16,13.60
2016,06,29,06,17,13.60
2016,06,29,06,18,13.60
2016,06,29,06,19,13.60
2016,06,29,06,20,13.60
2016,06,29,06,21,13.60
2016,06,29,06,22,13.70
2016,06,29,06,23,13.70
2016,06,29,06,24,13.70
2016,06,29,06,25,13.70
2016,06,29,06,26,13.70
2016,06,29,06,27,13.70
2016,06,29,06,28,13.80
2016,06,29,06,29,13.80
2016,06,29,06,30,13.80
2016,06,29,06,31,13.90
2016,06,29,06,32,13.90
2016,06,29,06,33,13.90
2016,06,29,06,34,14.00
2016,06,29,06,35,14.00
2016,06,29,06,36,14.10
2016,06,29,06,37,14.10
2016,06,29,06,38,14.20
2016,06,29,06,39,14.20
2016,06,29,06,40,14.20
2016,06,29,06,41,14.20
2016,06,29,06,42,14.30
2016,06,29,06,43,14.30
2016,06,29,06,44,14.30
2016,06,29,06,45,14.40
2016,06,29,06,46,14.40
2016,06,29,06,47,14.40
2016,06,29,06,48,14.50
2016,06,29,06,49,14.50
2016,06,29,06,50,14.60
2016,06,29,06,51,14.60
2016,06,29,06,52,14.60
2016,06,29,06,53,14.70
2016,06,29,06,54,14.70
2016,06,29,06,55,14.70
2016,06,29,06,56,14.70
2016,06,29,06,57,14.80
2016,06,29,06,58,14.80
2016,06,29,06,59,14.80
2016,06,29,07,00,14.80
2016,06,29,07,01,14.90
2016,06,29,07,02,14.90
2016,06,29,07,03,14.90
2016,06,29,07,04,15.00
2016,06,29,07,05,15.00
2016,06,29,07,06,15.00
2016,06,29,07,07,15.00
2016,06,29,07,08,15.00
2016,06,29,07,09,15.10
2016,06,29,07,10,15.10
2016,06,29,07,11,15.20
2016,06,29,07,12,15.30
2016,06,29,07,13,15.30
2016,06,29,07,14,15.40
2016,06,29,07,15,15.50
2016,06,29,07,16,15.60
2016,06,29,07,17,15.70
2016,06,29,07,18,15.70
2016,06,29,07,19,15.80
2016,06,29,07,20,15.90
2016,06,29,07,21,15.90
2016,06,29,07,22,16.00
2016,06,29,07,23,16.10
2016,06,29,07,24,16.20
2016,06,29,07,25,16.20
2016,06,29,07,26,16.30
2016,06,29,07,27,16.30
2016,06,29,07,28,16.30
2016,06,29,07,29,16.40
2016,06,29,07,30,16.40
2016,06,29,07,31,16.40
2016,06,29,07,32,16.40
2016,06,29,07,33,16.50
2016,06,29,07,34,16.50
2016,06,29,07,35,16.50
2016,06,29,07,36,16.50
2016,06,29,07,37,16.50
2016,06,29,07,38,16.60
2016,06,29,07,39,16.60
2016,06,29,07,40,16.60
2016,06,29,07,41,16.60
2016,06,29,07,42,16.60
2016,06,29,07,43,16.60
2016,06,29,07,44,16.70
2016,06,29,07,45,16.80
2016,06,29,07,46,16.90
2016,06,29,07,47,17.00
2016,06,29,07,48,17.20
2016,06,29,07,49,17.30
2016,06,29,07,50,17.40
2016,06,29,07,51,17.40
2016,06,29,07,52,17.40
2016,06,29,07,53,17.40
2016,06,29,07,54,17.40
2016,06,29,07,55,17.40
2016,06,29,07,56,17.50
2016,06,29,07,57,17.50
2016,06,29,07,58,17.60
2016,06,29,07,59,17.60
2016,06,29,08,00,17.70
2016,06,29,08,01,17.70
2016,06,29,08,02,17.80
2016,06,29,08,03,17.90
2016,06,29,08,04,17.90
2016,06,29,08,05,18.00
2016,06,29,08,06,18.00
2016,06,29,08,07,18.00
2016,06,29,08,08,18.10
2016,06,29,08,09,18.20
2016,06,29,08,10,18.20
2016,06,29,08,11,18.30
2016,06,29,08,12,18.40
2016,06,29,08,13,18.50
2016,06,29,08,14,18.50
2016,06,29,08,15,18.60
2016,06,29,08,16,18.70
2016,06,29,08,17,18.70
2016,06,29,08,18,18.70
2016,06,29,08,19,18.70
2016,06,29,08,20,18.70
2016,06,29,08,21,18.70
2016,06,29,08,22,18.70
2016,06,29,08,23,18.70
2016,06,29,08,24,18.80
2016,06,29,08,25,18.80
2016,06,29,08,26,18.90
2016,06,29,08,27,18.90
2016,06,29,08,28,19.00
2016,06,29,08,29,19.00
2016,06,29,08,30,19.00
2016,06,29,08,31,19.10
2016,06,29,08,32,19.10
2016,06,29,08,33,19.20
2016,06,29,08,34,19.20
2016,06,29,08,35,19.20
2016,06,29,08,36,19.30
2016,06,29,08,37,19.40
2016,06,29,08,38,19.50
2016,06,29,08,39,19.60
2016,06,29,08,40,19.70
2016,06,29,08,41,19.80
2016,06,29,08,42,19.80
2016,06,29,08,43,19.90
2016,06,29,08,44,19.90
2016,06,29,08,45,20.00
2016,06,29,08,46,20.10
2016,06,29,08,47,20.10
2016,06,29,08,48,20.20
2016,06,29,08,49,20.20
2016,06,29,08,50,20.20
2016,06,29,08,51,20.20
2016,06,29,08,52,20.10
2016,06,29,08,53,20.10
2016,06,29,08,54,20.20
2016,06,29,08,55,20.20
2016,06,29,08,56,20.30
2016,06,29,08,57,20.40
2016,06,29,08,58,20.40
2016,06,29,08,59,20.50
2016,06,29,09,00,20.60
2016,06,29,09,01,20.60
2016,06,29,09,02,20.70
2016,06,29,09,03,20.70
2016,06,29,09,04,20.70
2016,06,29,09,05,20.70
2016,06,29,09,06,20.60
2016,06,29,09,07,20.50
2016,06,29,09,08,20.50
2016,06,29,09,09,20.40
2016,06,29,09,10,20.40
2016,06,29,09,11,20.30
2016,06,29,09,12,20.30
2016,06,29,09,13,20.20
2016,06,29,09,14,20.10
2016,06,29,09,15,20.10
2016,06,29,09,16,20.10
2016,06,29,09,17,20.10
2016,06,29,09,18,20.20
2016,06,29,09,19,20.20
2016,06,29,09,20,20.30
2016,06,29,09,21,20.40
2016,06,29,09,22,20.50
2016,06,29,09,23,20.50
2016,06,29,09,24,20.60
2016,06,29,09,25,20.60
2016,06,29,09,26,20.70
2016,06,29,09,27,20.80
2016,06,29,09,28,20.90
2016,06,29,09,29,20.90
2016,06,29,09,30,20.90
2016,06,29,09,31,20.90
2016,06,29,09,32,20.90
2016,06,29,09,33,20.90
2016,06,29,09,34,20.90
2016,06,29,09,35,20.90
2016,06,29,09,36,21.00
2016,06,29,09,37,21.00
2016,06,29,09,38,21.10
2016,06,29,09,39,21.10
2016,06,29,09,40,21.10
2016,06,29,09,41,21.10
2016,06,29,09,42,21.10
2016,06,29,09,43,21.00
2016,06,29,09,44,21.00
2016,06,29,09,45,20.90
2016,06,29,09,46,20.80
2016,06,29,09,47,20.80
2016,06,29,09,48,20.80
2016,06,29,09,49,20.80
2016,06,29,09,50,20.80
2016,06,29,09,51,20.90
2016,06,29,09,52,20.90
2016,06,29,09,53,20.90
2016,06,29,09,54,20.90
2016,06,29,09,55,21.00
2016,06,29,09,56,21.00
2016,06,29,09,57,21.00
2016,06,29,09,58,21.10
2016,06,29,09,59,21.10
2016,06,29,10,00,21.20
2016,06,29,10,01,21.30
2016,06,29,10,02,21.30
2016,06,29,10,03,21.30
2016,06,29,10,04,21.30
2016,06,29,10,05,21.40
2016,06,29,10,06,21.40
2016,06,29,10,07,21.40
2016,06,29,10,08,21.40
2016,06,29,10,09,21.40
2016,06,29,10,10,21.40
2016,06,29,10,11,21.50
2016,06,29,10,12,21.60
2016,06,29,10,13,21.60
2016,06,29,10,14,21.60
2016,06,29,10,15,21.60
2016,06,29,10,16,21.60
2016,06,29,10,17,21.60
2016,06,29,10,18,21.60
2016,06,29,10,19,21.60
2016,06,29,10,20,21.60
2016,06,29,10,21,21.70
2016,06,29,10,22,21.70
2016,06,29,10,23,21.70
2016,06,29,10,24,21.70
2016,06,29,10,25,21.70
2016,06,29,10,26,21.70
2016,06,29,10,27,21.70
2016,06,29,10,28,21.80
2016,06,29,10,29,21.80
2016,06,29,10,30,21.70
2016,06,29,10,31,21.70
2016,06,29,10,32,21.60
2016,06,29,10,33,21.60
2016,06,29,10,34,21.60
2016,06,29,10,35,21.60
2016,06,29,10,36,21.60
2016,06,29,10,37,21.60
2016,06,29,10,38,21.60
2016,06,29,10,39,21.70
2016,06,29,10,40,21.70
2016,06,29,10,41,21.70
2016,06,29,10,42,21.70
2016,06,29,10,43,21.80
2016,06,29,10,44,21.90
2016,06,29,10,45,21.90
2016,06,29,10,46,21.90
2016,06,29,10,47,21.90
2016,06,29,10,48,21.80
2016,06,29,10,49,21.80
2016,06,29,10,50,21.80
2016,06,29,10,51,21.80
2016,06,29,10,52,21.80
2016,06,29,10,53,21.80
2016,06,29,10,54,21.80
2016,06,29,10,55,21.80
2016,06,29,10,56,21.80
2016,06,29,10,57,21.80
2016,06,29,10,58,21.80
2016,06,29,10,59,21.80
2016,06,29,11,00,21.80
2016,06,29,11,01,21.80
2016,06,29,11,02,21.90
2016,06,29,11,03,22.00
2016,06,29,11,04,22.00
2016,06,29,11,05,22.10
2016,06,29,11,06,22.20
2016,06,29,11,07,22.20
2016,06,29,11,08,22.30
2016,06,29,11,09,22.30
2016,06,29,11,10,22.40
2016,06,29,11,11,22.40
2016,06,29,11,12,22.40
2016,06,29,11,13,22.40
2016,06,29,11,14,22.40
2016,06,29,11,15,22.30
2016,06,29,11,16,22.30
2016,06,29,11,17,22.30
2016,06,29,11,18,22.30
2016,06,29,11,19,22.30
2016,06,29,11,20,22.30
2016,06,29,11,21,22.30
2016,06,29,11,22,22.40
2016,06,29,11,23,22.40
2016,06,29,11,24,22.40
2016,06,29,11,25,22.40
2016,06,29,11,26,22.40
2016,06,29,11,27,22.50
2016,06,29,11,28,22.50
2016,06,29,11,29,22.60
2016,06,29,11,30,22.60
2016,06,29,11,31,22.50
2016,06,29,11,32,22.50
2016,06,29,11,33,22.60
2016,06,29,11,34,22.70
2016,06,29,11,35,22.90
2016,06,29,11,36,22.90
2016,06,29,11,37,22.90
2016,06,29,11,38,22.90
2016,06,29,11,39,22.80
2016,06,29,11,40,22.70
2016,06,29,11,41,22.60
2016,06,29,11,42,22.50
2016,06,29,11,43,22.40
2016,06,29,11,44,22.30
2016,06,29,11,45,22.30
2016,06,29,11,46,22.20
2016,06,29,11,47,22.20
2016,06,29,11,48,22.20
2016,06,29,11,49,22.20
2016,06,29,11,50,22.20
2016,06,29,11,51,22.20
2016,06,29,11,52,22.30
2016,06,29,11,53,22.40
2016,06,29,11,54,22.40
2016,06,29,11,55,22.40
2016,06,29,11,56,22.40
2016,06,29,11,57,22.40
2016,06,29,11,58,22.50
2016,06,29,11,59,22.50
2016,06,29,12,00,22.60
2016,06,29,12,01,22.60
2016,06,29,12,02,22.60
2016,06,29,12,03,22.60
2016,06,29,12,04,22.60
2016,06,29,12,05,22.60
2016,06,29,12,06,22.60
2016,06,29,12,07,22.60
2016,06,29,12,08,22.60
2016,06,29,12,09,22.60
2016,06,29,12,10,22.50
2016,06,29,12,11,22.40
2016,06,29,12,12,22.30
2016,06,29,12,13,22.20
2016,06,29,12,14,22.20
2016,06,29,12,15,22.20
2016,06,29,12,16,22.20
2016,06,29,12,17,22.30
2016,06,29,12,18,22.30
2016,06,29,12,19,22.40
2016,06,29,12,20,22.50
2016,06,29,12,21,22.60
2016,06,29,12,22,22.60
2016,06,29,12,23,22.60
2016,06,29,12,24,22.70
2016,06,29,12,25,22.70
2016,06,29,12,26,22.70
2016,06,29,12,27,22.80
2016,06,29,12,28,22.80
2016,06,29,12,29,22.80
2016,06,29,12,30,22.80
2016,06,29,12,31,22.80
2016,06,29,12,32,22.80
2016,06,29,12,33,22.70
2016,06,29,12,34,22.70
2016,06,29,12,35,22.80
2016,06,29,12,36,22.80
2016,06,29,12,37,22.80
2016,06,29,12,38,22.90
2016,06,29,12,39,22.90
2016,06,29,12,40,22.90
2016,06,29,12,41,22.90
2016,06,29,12,42,22.90
2016,06,29,12,43,22.90
2016,06,29,12,44,22.90
2016,06,29,12,45,22.90
2016,06,29,12,46,22.90
2016,06,29,12,47,22.90
2016,06,29,12,48,22.90
2016,06,29,12,49,22.90
2016,06,29,12,50,22.90
2016,06,29,12,51,22.80
2016,06,29,12,52,22.80
2016,06,29,12,53,22.80
2016,06,29,12,54,22.80
2016,06,29,12,55,22.80
2016,06,29,12,56,22.80
2016,06,29,12,57,22.80
2016,06,29,12,58,22.90
2016,06,29,12,59,23.00
2016,06,29,13,00,23.00
2016,06,29,13,01,23.10
2016,06,29,13,02,23.20
2016,06,29,13,03,23.20
2016,06,29,13,04,23.20
2016,06,29,13,05,23.10
2016,06,29,13,06,22.90
2016,06,29,13,07,22.90
2016,06,29,13,08,22.90
2016,06,29,13,09,22.90
2016,06,29,13,10,23.00
2016,06,29,13,11,23.10
2016,06,29,13,12,23.20
2016,06,29,13,13,23.20
2016,06,29,13,14,23.30
2016,06,29,13,15,23.20
2016,06,29,13,16,23.30
2016,06,29,13,17,23.20
2016,06,29,13,18,23.20
2016,06,29,13,19,23.30
2016,06,29,13,20,23.30
2016,06,29,13,21,23.30
2016,06,29,13,22,23.30
2016,06,29,13,23,23.30
2016,06,29,13,24,23.20
2016,06,29,13,25,23.20
2016,06,29,13,26,23.20
2016,06,29,13,27,23.20
2016,06,29,13,28,23.30
2016,06,29,13,29,23.30
2016,06,29,13,30,23.30
2016,06,29,13,31,23.30
2016,06,29,13,32,23.30
2016,06,29,13,33,23.30
2016,06,29,13,34,23.20
2016,06,29,13,35,23.00
2016,06,29,13,36,22.90
2016,06,29,13,37,22.70
2016,06,29,13,38,22.70
2016,06,29,13,39,22.70
2016,06,29,13,40,22.70
2016,06,29,13,41,22.80
2016,06,29,13,42,22.80
2016,06,29,13,43,22.90
2016,06,29,13,44,22.90
2016,06,29,13,45,23.10
2016,06,29,13,46,23.20
2016,06,29,13,47,23.20
2016,06,29,13,48,23.20
2016,06,29,13,49,23.20
2016,06,29,13,50,23.10
2016,06,29,13,51,23.00
2016,06,29,13,52,22.90
2016,06,29,13,53,22.70
2016,06,29,13,54,22.70
2016,06,29,13,55,22.60
2016,06,29,13,56,22.50
2016,06,29,13,57,22.40
2016,06,29,13,58,22.40
2016,06,29,13,59,22.40
2016,06,29,14,00,22.40
2016,06,29,14,01,22.40
2016,06,29,14,02,22.50
2016,06,29,14,03,22.50
2016,06,29,14,04,22.50
2016,06,29,14,05,22.40
2016,06,29,14,06,22.40
2016,06,29,14,07,22.30
2016,06,29,14,08,22.30
2016,06,29,14,09,22.30
2016,06,29,14,10,22.30
2016,06,29,14,11,22.40
2016,06,29,14,12,22.40
2016,06,29,14,13,22.40
2016,06,29,14,14,22.40
2016,06,29,14,15,22.40
2016,06,29,14,16,22.40
2016,06,29,14,17,22.40
2016,06,29,14,18,22.30
2016,06,29,14,19,22.20
2016,06,29,14,20,22.20
2016,06,29,14,21,22.20
2016,06,29,14,22,22.20
2016,06,29,14,23,22.20
2016,06,29,14,24,22.30
2016,06,29,14,25,22.30
2016,06,29,14,26,22.30
2016,06,29,14,27,22.40
2016,06,29,14,28,22.40
2016,06,29,14,29,22.50
2016,06,29,14,30,22.60
2016,06,29,14,31,22.60
2016,06,29,14,32,22.70
2016,06,29,14,33,22.80
2016,06,29,14,34,22.90
2016,06,29,14,35,23.00
2016,06,29,14,36,23.10
2016,06,29,14,37,23.20
2016,06,29,14,38,23.20
2016,06,29,14,39,23.20
2016,06,29,14,40,23.30
2016,06,29,14,41,23.30
2016,06,29,14,42,23.30
2016,06,29,14,43,23.40
2016,06,29,14,44,23.40
2016,06,29,14,45,23.40
2016,06,29,14,46,23.40
2016,06,29,14,47,23.30
2016,06,29,14,48,23.20
2016,06,29,14,49,23.10
2016,06,29,14,50,23.00
2016,06,29,14,51,22.90
2016,06,29,14,52,22.60
2016,06,29,14,53,22.40
2016,06,29,14,54,22.30
2016,06,29,14,55,22.10
2016,06,29,14,56,22.10
2016,06,29,14,57,22.10
2016,06,29,14,58,22.20
2016,06,29,14,59,22.20
2016,06,29,15,00,22.30
2016,06,29,15,01,22.10
2016,06,29,15,02,22.00
2016,06,29,15,03,21.90
2016,06,29,15,04,21.90
2016,06,29,15,05,22.00
2016,06,29,15,06,21.90
2016,06,29,15,07,21.80
2016,06,29,15,08,21.70
2016,06,29,15,09,21.60
2016,06,29,15,10,21.50
2016,06,29,15,11,21.40
2016,06,29,15,12,21.40
2016,06,29,15,13,21.40
2016,06,29,15,14,21.40
2016,06,29,15,15,21.40
2016,06,29,15,16,21.50
2016,06,29,15,17,21.40
2016,06,29,15,18,21.40
2016,06,29,15,19,21.40
2016,06,29,15,20,21.30
2016,06,29,15,21,21.20
2016,06,29,15,22,21.20
2016,06,29,15,23,21.30
2016,06,29,15,24,21.40
2016,06,29,15,25,21.50
2016,06,29,15,26,21.60
2016,06,29,15,27,21.70
2016,06,29,15,28,21.80
2016,06,29,15,29,21.80
2016,06,29,15,30,21.80
2016,06,29,15,31,21.60
2016,06,29,15,32,21.50
2016,06,29,15,33,21.30
2016,06,29,15,34,21.10
2016,06,29,15,35,21.00
2016,06,29,15,36,21.00
2016,06,29,15,37,21.00
2016,06,29,15,38,21.10
2016,06,29,15,39,21.20
2016,06,29,15,40,21.30
2016,06,29,15,41,21.30
2016,06,29,15,42,21.40
2016,06,29,15,43,21.50
2016,06,29,15,44,21.60
2016,06,29,15,45,21.80
2016,06,29,15,46,21.90
2016,06,29,15,47,22.10
2016,06,29,15,48,22.20
2016,06,29,15,49,22.30
2016,06,29,15,50,22.40
2016,06,29,15,51,22.50
2016,06,29,15,52,22.50
2016,06,29,15,53,22.40
2016,06,29,15,54,22.40
2016,06,29,15,55,22.40
2016,06,29,15,56,22.40
2016,06,29,15,57,22.40
2016,06,29,15,58,22.50
2016,06,29,15,59,22.50
2016,06,29,16,00,22.50
2016,06,29,16,01,22.40
2016,06,29,16,02,22.40
2016,06,29,16,03,22.40
2016,06,29,16,04,22.50
2016,06,29,16,05,22.60
2016,06,29,16,06,22.60
2016,06,29,16,07,22.60
2016,06,29,16,08,22.70
2016,06,29,16,09,22.70
2016,06,29,16,10,22.70
2016,06,29,16,11,22.70
2016,06,29,16,12,22.80
2016,06,29,16,13,22.80
2016,06,29,16,14,22.80
2016,06,29,16,15,22.80
2016,06,29,16,16,22.80
2016,06,29,16,17,22.70
2016,06,29,16,18,22.70
2016,06,29,16,19,22.70
2016,06,29,16,20,22.70
2016,06,29,16,21,22.80
2016,06,29,16,22,22.70
2016,06,29,16,23,22.50
2016,06,29,16,24,22.30
2016,06,29,16,25,22.20
2016,06,29,16,26,22.00
2016,06,29,16,27,21.80
2016,06,29,16,28,21.60
2016,06,29,16,29,21.60
2016,06,29,16,30,21.50
2016,06,29,16,31,21.40
2016,06,29,16,32,21.30
2016,06,29,16,33,21.20
2016,06,29,16,34,21.20
2016,06,29,16,35,21.20
2016,06,29,16,36,21.30
2016,06,29,16,37,21.30
2016,06,29,16,38,21.30
2016,06,29,16,39,21.30
2016,06,29,16,40,21.40
2016,06,29,16,41,21.40
2016,06,29,16,42,21.40
2016,06,29,16,43,21.40
2016,06,29,16,44,21.50
2016,06,29,16,45,21.60
2016,06,29,16,46,21.70
2016,06,29,16,47,21.80
2016,06,29,16,48,21.90
2016,06,29,16,49,21.90
2016,06,29,16,50,21.90
2016,06,29,16,51,21.90
2016,06,29,16,52,21.90
2016,06,29,16,53,21.90
2016,06,29,16,54,21.90
2016,06,29,16,55,21.80
2016,06,29,16,56,21.70
2016,06,29,16,57,21.50
2016,06,29,16,58,21.50
2016,06,29,16,59,21.40
2016,06,29,17,00,21.40
2016,06,29,17,01,21.50
2016,06,29,17,02,21.50
2016,06,29,17,03,21.60
2016,06,29,17,04,21.50
2016,06,29,17,05,21.50
2016,06,29,17,06,21.50
2016,06,29,17,07,21.50
2016,06,29,17,08,21.60
2016,06,29,17,09,21.50
2016,06,29,17,10,21.50
2016,06,29,17,11,21.50
2016,06,29,17,12,21.30
2016,06,29,17,13,21.10
2016,06,29,17,14,20.90
2016,06,29,17,15,20.80
2016,06,29,17,16,20.70
2016,06,29,17,17,20.60
2016,06,29,17,18,20.50
2016,06,29,17,19,20.30